Location: Czu?�w
(50.1404°N, 18.9919°E)
Time: 12:04:39
(UTC+00:00)

Cosmos 2228 - Pass Details

Date: 27 October 2020
Orbit: 590 x 617 km, 82.5° (Epoch: 24 November)

Event Time Altitude Azimuth Distance (km) Brightness Sun altitude
Rises 16:58:45 0° 205° (SSW) 2,816 6.8 -14.9°
Reaches altitude 10° 17:01:01 10° 212° (SSW) 1,922 6.0 -15.3°
Maximum altitude 17:05:05 45° 286° (WNW) 822 4.2 -16.0°
Drops below altitude 10° 17:09:14 10° 359° (N) 1,950 5.6 -16.6°
Sets 17:11:32 0° 6° (N) 2,862 6.4 -17.0°
